Back to catalog

COSMOS 765

AliveMilitaryLEO
NORAD 8289·PAYLOAD·🇷🇺 Russia

Launched Sep 17, 1975 from Plesetsk Cosmodrome

Loading…

Next Passes (next 24 hours)

TLE

FreshSource: Space-Track

Epoch: Sep 14, 2026, 05:54 UTC

1 08289U 75086E   26257.24643170 -.00000004  00000-0  91557-4 0  9998
2 08289  74.0141 353.3344 0046321 267.8777 118.7574 12.38291137305111

Track COSMOS 765 in real time with AllMySat

Download on the App Store